Tracking 30995 objects as of 7-Jul-2025
HD Live streaming from Space Station
objects crossing your sky now

COSMOS 2491 DEB

Track COSMOS 2491 DEB now!
10-day predictions


NORAD ID: 57561
Int'l Code: 2013-076AY
Perigee: 1,287.8 km
Apogee: 1,473.5 km
Inclination: 82.8 °
Period: 113.2 minutes
Semi major axis: 7751 km
RCS: Unknown
Launch date: December 25, 2013
Source: Commonwealth of Independent States (former USSR) (CIS)
Launch site: PLESETSK MISSILE AND SPACE COMPLEX (PKMTR)

Note: This is SATELLITE DEBRIS
Your satellite tracking list
Your tracking list is empty




NASA's NSSDC Master Catalog

Two Line Element Set (TLE):
1 57561U 13076AY  25185.13456510  .00002138  00000-0  10133-1 0  9990
2 57561  82.7534 339.4842 0119755 277.2279  81.5218 12.72067472100062
Source of the keplerian elements: AFSPC